Погода в Новой Беденьге

Россия / Ульяновская область     54°29′50″N   48°21′15″E
темп.,
°C
ветер,
м/с
пор.,
м/с
влажн.,
%
обл.,
%
осадки,
мм/ч
давл.,
гПа
погр.,
м
4 августа, ср
ср401:00+21ююз357956 0.0 101288
04:00+20зюз228078 0.1 101115
07:00+21зсз2479100 0.0 1011148
10:00+25зсз6765100 0.0 1012741
13:00+24зсз235999 0.1 1012712
16:00+26сз5548100 0.1 10121210
19:00+24с565528 0.1 1012865
22:00+20сз35750 0.1 101388
5 августа, чт
чт501:00+18сз34772 0.0 101461
04:00+17сз33824 0.1 101447
07:00+18сз24735 0.1 1015131
10:00+20ссз575399 0.1 1015369
13:00+22ссз574599 0.0 1016776
16:00+25ссз563388 0.0 10162146
19:00+23ссз68395 0.0 1016560
22:00+18ссз345333 0.0 101746
6 августа, пт
пт601:00+16сз345565 0.0 101754
04:00+15сз33567 0.0 101844
07:00+16ссз235263 0.0 101893
10:00+22ссв233791 0.0 1018962
13:00+24всв343310 0.0 10181728
16:00+24в3334100 0.0 1017922
19:00+23вюв23416 0.0 1017175
22:00+20в224634 0.0 101712
7 августа, сб
сб701:00+18вюв22515 0.0 101721
04:00+16юв335874 0.0 101743
07:00+19ююв23535 0.0 1017122
10:00+23ююв33395 0.0 1018494
13:00+27юв33320 0.0 1017871
16:00+28вюв33292 0.0 1016752
19:00+26вюв23387 0.0 101666
22:00+22вюв124288 0.0 101711
8 августа, вс
вс801:00+20вюв11556 0.0 101711
04:00+19всв11609 0.0 101711
07:00+21юв11515 0.0 101839
10:00+27ююв2333100 0.0 1018390
13:00+30юв242573 0.0 10171426
16:00+30вюв232799 0.0 10171208
19:00+27в2236100 0.0 101631
22:00+23всв2249100 0.0 101721